QPF
0.06 0.07 0.07 0.07 0.08 0.10 0.12 0.09 0.07 0.06 0.06 0.05 0.03 0.02 0.02 0.02 0.03 0.04 0.04 0.03 0.02 0.02 0.02 0.02 0.03 0.04 0.04 0.07 0.10 0.13 0.15 0.16 0.15 0.14 0.12 0.10 0.10 0.10 0.11 0.11 0.10 0.10 0.10
0.07 0.07 0.08 0.08 0.08 0.09 0.10 0.09 0.07 0.08 0.07 0.05 0.03 0.02 0.01 0.02 0.02 0.02 0.02 0.02 0.02 0.02 0.02 0.02 0.02 0.04 0.05 0.06 0.08 0.10 0.13 0.14 0.15 0.14 0.13 0.12 0.11 0.11 0.11 0.11 0.10 0.10 0.09
0.08 0.09 0.09 0.07 0.08 0.09 0.09 0.09 0.08 0.07 0.06 0.05 0.03 0.02 0.01 0.01 0.01 0.01 0.02 0.02 0.02 0.03 0.03 0.02 0.02 0.03 0.03 0.04 0.06 0.08 0.10 0.11 0.12 0.12 0.13 0.12 0.12 0.12 0.13 0.12 0.11 0.10 0.09
0.07 0.09 0.09 0.09 0.11 0.11 0.09 0.08 0.07 0.06 0.06 0.04 0.04 0.02 0.01 0.01 0.01 0.02 0.02 0.02 0.02 0.02 0.04 0.02 0.02 0.01 0.01 0.02 0.04 0.06 0.07 0.09 0.10 0.10 0.10 0.11 0.12 0.14 0.13 0.14 0.14 0.12 0.11
0.07 0.08 0.08 0.09 0.08 0.08 0.08 0.06 0.07 0.05 0.05 0.05 0.03 0.02 0.01 0.01 0.01 0.01 0.01 0.01 0.02 0.02 0.03 0.03 0.02 0.01 0.01 0.02 0.02 0.04 0.07 0.09 0.10 0.09 0.10 0.11 0.11 0.12 0.14 0.16 0.16 0.14 0.13
0.06 0.07 0.08 0.09 0.08 0.08 0.07 0.06 0.05 0.05 0.05 0.04 0.02 0.02 0.02 0.01 0.01 0.01 0.01 0.03 0.03 0.02 0.02 0.02 0.03 0.03 0.02 0.02 0.02 0.02 0.05 0.08 0.11 0.11 0.11 0.11 0.11 0.11 0.11 0.13 0.13 0.13 0.12
0.08 0.10 0.10 0.09 0.07 0.07 0.06 0.05 0.04 0.04 0.04 0.05 0.05 0.04 0.03 0.01 0.02 0.02 0.02 0.03 0.04 0.03 0.02 0.03 0.04 0.04 0.04 0.03 0.02 0.02 0.04 0.07 0.10 0.11 0.11 0.12 0.10 0.11 0.11 0.10 0.11 0.13 0.13
0.08 0.07 0.07 0.06 0.06 0.05 0.05 0.04 0.04 0.04 0.04 0.05 0.06 0.06 0.04 0.03 0.03 0.02 0.03 0.03 0.03 0.03 0.02 0.03 0.04 0.05 0.06 0.06 0.04 0.04 0.04 0.06 0.10 0.11 0.12 0.14 0.14 0.13 0.12 0.10 0.09 0.09 0.10
0.06 0.05 0.04 0.04 0.03 0.03 0.04 0.04 0.04 0.04 0.04 0.05 0.05 0.05 0.05 0.04 0.04 0.03 0.03 0.03 0.03 0.03 0.03 0.03 0.03 0.05 0.06 0.07 0.06 0.05 0.04 0.04 0.07 0.11 0.13 0.14 0.16 0.15 0.15 0.12 0.09 0.08 0.07
0.05 0.04 0.03 0.02 0.03 0.03 0.04 0.04 0.05 0.05 0.05 0.05 0.05 0.06 0.07 0.06 0.07 0.05 0.04 0.04 0.04 0.03 0.03 0.02 0.03 0.04 0.05 0.07 0.07 0.05 0.04 0.03 0.04 0.07 0.10 0.11 0.13 0.14 0.13 0.12 0.12 0.11 0.10
0.06 0.04 0.03 0.03 0.04 0.04 0.04 0.04 0.04 0.05 0.06 0.07 0.07 0.08 0.09 0.08 0.08 0.06 0.04 0.04 0.05 0.04 0.03 0.03 0.03 0.04 0.05 0.07 0.08 0.06 0.06 0.04 0.04 0.05 0.07 0.09 0.11 0.12 0.13 0.12 0.12 0.15 0.16
0.08 0.06 0.06 0.06 0.04 0.03 0.03 0.04 0.04 0.03 0.04 0.05 0.05 0.06 0.06 0.06 0.05 0.05 0.05 0.05 0.04 0.03 0.03 0.03 0.03 0.04 0.05 0.06 0.06 0.07 0.07 0.07 0.05 0.04 0.05 0.07 0.08 0.10 0.11 0.12 0.13 0.16 0.18
0.11 0.08 0.05 0.04 0.03 0.03 0.04 0.05 0.04 0.04 0.04 0.04 0.05 0.06 0.06 0.05 0.05 0.04 0.05 0.05 0.04 0.03 0.03 0.03 0.05 0.05 0.05 0.07 0.08 0.06 0.05 0.05 0.05 0.04 0.04 0.04 0.05 0.08 0.10 0.12 0.12 0.13 0.14
0.08 0.06 0.05 0.04 0.03 0.02 0.03 0.04 0.04 0.04 0.04 0.04 0.04 0.05 0.05 0.04 0.04 0.04 0.06 0.07 0.06 0.05 0.04 0.05 0.06 0.06 0.09 0.09 0.10 0.08 0.06 0.05 0.04 0.04 0.04 0.04 0.04 0.04 0.06 0.08 0.09 0.10 0.11
0.05 0.04 0.04 0.04 0.03 0.03 0.03 0.04 0.04 0.04 0.04 0.04 0.03 0.05 0.06 0.05 0.04 0.04 0.04 0.06 0.08 0.08 0.05 0.06 0.07 0.07 0.08 0.08 0.10 0.09 0.09 0.07 0.04 0.03 0.03 0.03 0.03 0.03 0.03 0.04 0.04 0.04 0.05
0.05 0.04 0.03 0.03 0.03 0.03 0.04 0.05 0.04 0.04 0.04 0.04 0.05 0.06 0.07 0.06 0.05 0.05 0.05 0.05 0.08 0.09 0.08 0.07 0.07 0.07 0.06 0.05 0.08 0.09 0.09 0.07 0.05 0.04 0.03 0.02 0.02 0.02 0.02 0.02 0.02 0.03 0.04
0.05 0.04 0.04 0.05 0.04 0.04 0.05 0.06 0.04 0.04 0.04 0.05 0.05 0.05 0.06 0.07 0.06 0.05 0.06 0.06 0.08 0.10 0.10 0.09 0.08 0.06 0.06 0.06 0.07 0.10 0.08 0.06 0.05 0.05 0.04 0.03 0.02 0.02 0.02 0.02 0.02 0.03 0.04
0.06 0.07 0.07 0.07 0.05 0.04 0.04 0.05 0.05 0.04 0.03 0.03 0.03 0.04 0.04 0.05 0.06 0.05 0.06 0.06 0.08 0.11 0.11 0.08 0.07 0.07 0.07 0.07 0.09 0.10 0.07 0.04 0.03 0.03 0.04 0.03 0.02 0.02 0.03 0.03 0.03 0.03 0.04
0.08 0.09 0.09 0.07 0.05 0.04 0.04 0.04 0.03 0.04 0.03 0.03 0.03 0.03 0.03 0.04 0.05 0.06 0.07 0.07 0.08 0.09 0.11 0.09 0.07 0.09 0.08 0.07 0.10 0.10 0.08 0.05 0.04 0.02 0.02 0.02 0.02 0.02 0.02 0.03 0.04 0.04 0.04
0.12 0.11 0.09 0.07 0.06 0.06 0.06 0.04 0.04 0.04 0.04 0.03 0.02 0.03 0.04 0.04 0.05 0.05 0.05 0.06 0.08 0.09 0.10 0.09 0.07 0.08 0.09 0.08 0.09 0.10 0.09 0.08 0.06 0.04 0.03 0.02 0.02 0.02 0.03 0.03 0.04 0.05 0.06
0.10 0.09 0.07 0.06 0.05 0.06 0.05 0.05 0.05 0.05 0.05 0.04 0.03 0.04 0.03 0.03 0.03 0.03 0.03 0.04 0.06 0.08 0.08 0.08 0.08 0.07 0.09 0.09 0.08 0.08 0.08 0.10 0.08 0.05 0.05 0.04 0.03 0.02 0.03 0.04 0.04 0.04 0.06
0.06 0.07 0.08 0.08 0.06 0.05 0.05 0.05 0.04 0.04 0.04 0.04 0.05 0.04 0.03 0.02 0.02 0.02 0.02 0.03 0.03 0.04 0.05 0.06 0.07 0.08 0.09 0.09 0.09 0.08 0.09 0.09 0.09 0.07 0.07 0.05 0.04 0.04 0.04 0.03 0.03 0.04 0.04
0.06 0.09 0.11 0.10 0.08 0.06 0.05 0.03 0.02 0.02 0.03 0.05 0.07 0.07 0.05 0.03 0.03 0.04 0.03 0.03 0.03 0.03 0.03 0.04 0.06 0.07 0.07 0.08 0.09 0.10 0.11 0.10 0.09 0.10 0.09 0.06 0.04 0.03 0.03 0.03 0.03 0.03 0.03
0.06 0.08 0.09 0.09 0.10 0.08 0.06 0.03 0.02 0.01 0.02 0.04 0.06 0.07 0.06 0.05 0.05 0.05 0.04 0.05 0.05 0.05 0.04 0.04 0.05 0.06 0.05 0.06 0.07 0.08 0.09 0.09 0.10 0.10 0.11 0.08 0.05 0.04 0.02 0.02 0.02 0.02 0.03
0.06 0.07 0.08 0.08 0.08 0.08 0.07 0.05 0.04 0.03 0.02 0.03 0.04 0.04 0.05 0.05 0.04 0.04 0.03 0.04 0.05 0.05 0.03 0.02 0.02 0.02 0.01 0.02 0.03 0.04 0.06 0.07 0.09 0.10 0.10 0.08 0.06 0.05 0.03 0.02 0.02 0.01 0.01
0.06 0.06 0.07 0.07 0.07 0.07 0.06 0.06 0.06 0.05 0.04 0.03 0.04 0.05 0.05 0.04 0.03 0.02 0.02 0.03 0.04 0.04 0.04 0.03 0.03 0.03 0.03 0.03 0.03 0.03 0.05 0.06 0.08 0.08 0.08 0.08 0.07 0.07 0.05 0.03 0.03 0.02 0.01
MSLP
1012.14 1012.65 1013.11 1013.52 1013.86 1014.14 1014.34 1014.47 1014.50 1014.43 1014.26 1014.01 1013.69 1013.34 1013.00 1012.71 1012.51 1012.41 1012.42 1012.53 1012.71 1012.92 1013.14 1013.35 1013.52 1013.66 1013.76 1013.85 1013.92 1014.00 1014.10 1014.22 1014.38 1014.57 1014.80 1015.06 1015.34 1015.64 1015.95 1016.26 1016.57 1016.86 1017.14
1012.08 1012.60 1013.09 1013.53 1013.90 1014.19 1014.39 1014.50 1014.49 1014.37 1014.15 1013.85 1013.49 1013.12 1012.76 1012.47 1012.26 1012.17 1012.18 1012.28 1012.44 1012.65 1012.85 1013.04 1013.20 1013.31 1013.39 1013.44 1013.48 1013.51 1013.56 1013.64 1013.76 1013.92 1014.12 1014.37 1014.65 1014.95 1015.27 1015.58 1015.90 1016.20 1016.49
1012.08 1012.59 1013.08 1013.53 1013.92 1014.22 1014.42 1014.50 1014.46 1014.31 1014.06 1013.72 1013.34 1012.96 1012.60 1012.31 1012.11 1012.01 1012.01 1012.10 1012.24 1012.42 1012.60 1012.76 1012.90 1013.00 1013.06 1013.09 1013.10 1013.10 1013.12 1013.15 1013.23 1013.34 1013.50 1013.71 1013.95 1014.22 1014.52 1014.82 1015.13 1015.43 1015.74
1012.15 1012.61 1013.08 1013.51 1013.90 1014.20 1014.39 1014.46 1014.41 1014.24 1013.97 1013.63 1013.25 1012.88 1012.54 1012.26 1012.06 1011.96 1011.95 1012.01 1012.12 1012.26 1012.40 1012.54 1012.66 1012.74 1012.79 1012.81 1012.81 1012.80 1012.78 1012.78 1012.81 1012.87 1012.97 1013.11 1013.29 1013.51 1013.75 1014.02 1014.30 1014.59 1014.90
1012.25 1012.65 1013.06 1013.47 1013.83 1014.12 1014.31 1014.38 1014.32 1014.15 1013.89 1013.56 1013.21 1012.87 1012.56 1012.32 1012.14 1012.04 1012.01 1012.04 1012.10 1012.20 1012.30 1012.40 1012.48 1012.55 1012.59 1012.61 1012.61 1012.59 1012.56 1012.54 1012.52 1012.52 1012.54 1012.61 1012.70 1012.84 1013.01 1013.21 1013.45 1013.72 1014.02
1012.35 1012.68 1013.03 1013.39 1013.72 1013.99 1014.17 1014.24 1014.19 1014.04 1013.80 1013.52 1013.22 1012.94 1012.68 1012.48 1012.34 1012.24 1012.20 1012.18 1012.19 1012.22 1012.26 1012.31 1012.36 1012.40 1012.44 1012.47 1012.47 1012.46 1012.43 1012.38 1012.33 1012.28 1012.23 1012.21 1012.22 1012.26 1012.34 1012.46 1012.62 1012.85 1013.12
1012.42 1012.68 1012.98 1013.29 1013.58 1013.83 1013.99 1014.06 1014.03 1013.91 1013.73 1013.51 1013.28 1013.07 1012.89 1012.75 1012.64 1012.55 1012.48 1012.42 1012.37 1012.32 1012.29 1012.27 1012.27 1012.28 1012.31 1012.34 1012.36 1012.36 1012.34 1012.29 1012.22 1012.12 1012.02 1011.92 1011.83 1011.78 1011.76 1011.79 1011.88 1012.03 1012.25
1012.46 1012.66 1012.91 1013.17 1013.43 1013.66 1013.81 1013.88 1013.87 1013.80 1013.67 1013.52 1013.38 1013.26 1013.15 1013.07 1013.00 1012.92 1012.82 1012.71 1012.58 1012.45 1012.33 1012.24 1012.18 1012.16 1012.17 1012.20 1012.23 1012.25 1012.24 1012.20 1012.12 1012.00 1011.85 1011.69 1011.54 1011.40 1011.29 1011.24 1011.23 1011.30 1011.44
1012.44 1012.61 1012.82 1013.06 1013.29 1013.49 1013.64 1013.72 1013.74 1013.70 1013.64 1013.56 1013.50 1013.46 1013.43 1013.40 1013.36 1013.28 1013.16 1012.99 1012.79 1012.57 1012.36 1012.19 1012.06 1011.99 1011.97 1011.99 1012.03 1012.06 1012.08 1012.05 1011.97 1011.85 1011.69 1011.50 1011.30 1011.10 1010.93 1010.79 1010.70 1010.67 1010.72
1012.39 1012.55 1012.75 1012.97 1013.18 1013.36 1013.50 1013.59 1013.62 1013.63 1013.62 1013.61 1013.62 1013.64 1013.67 1013.68 1013.66 1013.57 1013.42 1013.20 1012.92 1012.63 1012.34 1012.08 1011.88 1011.75 1011.70 1011.70 1011.73 1011.77 1011.80 1011.79 1011.73 1011.62 1011.46 1011.28 1011.06 1010.84 1010.63 1010.44 1010.27 1010.16 1010.10
1012.32 1012.50 1012.69 1012.90 1013.10 1013.27 1013.40 1013.49 1013.54 1013.57 1013.59 1013.63 1013.68 1013.75 1013.82 1013.86 1013.84 1013.74 1013.56 1013.30 1012.96 1012.60 1012.23 1011.90 1011.64 1011.46 1011.35 1011.32 1011.33 1011.36 1011.39 1011.39 1011.34 1011.26 1011.13 1010.96 1010.77 1010.56 1010.34 1010.12 1009.92 1009.73 1009.58
1012.26 1012.45 1012.65 1012.85 1013.03 1013.19 1013.32 1013.40 1013.45 1013.50 1013.54 1013.59 1013.67 1013.76 1013.84 1013.88 1013.86 1013.75 1013.54 1013.24 1012.87 1012.46 1012.04 1011.66 1011.35 1011.11 1010.96 1010.88 1010.85 1010.85 1010.86 1010.85 1010.82 1010.75 1010.65 1010.52 1010.37 1010.20 1010.00 1009.80 1009.58 1009.36 1009.14
1012.21 1012.40 1012.60 1012.79 1012.97 1013.11 1013.22 1013.30 1013.34 1013.38 1013.42 1013.47 1013.54 1013.62 1013.69 1013.72 1013.69 1013.57 1013.36 1013.05 1012.66 1012.24 1011.80 1011.39 1011.03 1010.75 1010.54 1010.41 1010.32 1010.27 1010.24 1010.20 1010.15 1010.09 1010.02 1009.93 1009.82 1009.71 1009.58 1009.41 1009.22 1009.00 1008.75
1012.16 1012.35 1012.53 1012.71 1012.87 1013.00 1013.09 1013.15 1013.18 1013.20 1013.21 1013.24 1013.29 1013.34 1013.38 1013.39 1013.35 1013.22 1013.01 1012.71 1012.34 1011.93 1011.50 1011.08 1010.71 1010.39 1010.14 1009.94 1009.79 1009.67 1009.57 1009.48 1009.40 1009.32 1009.25 1009.20 1009.14 1009.08 1009.02 1008.92 1008.79 1008.61 1008.38
1012.10 1012.26 1012.43 1012.58 1012.72 1012.83 1012.91 1012.94 1012.95 1012.94 1012.92 1012.91 1012.91 1012.92 1012.93 1012.91 1012.85 1012.72 1012.53 1012.26 1011.93 1011.55 1011.16 1010.76 1010.38 1010.05 1009.75 1009.49 1009.27 1009.07 1008.89 1008.73 1008.60 1008.49 1008.40 1008.36 1008.33 1008.33 1008.33 1008.30 1008.25 1008.14 1007.98
1012.02 1012.15 1012.28 1012.41 1012.52 1012.61 1012.66 1012.68 1012.66 1012.61 1012.55 1012.49 1012.44 1012.40 1012.36 1012.31 1012.23 1012.12 1011.94 1011.72 1011.44 1011.12 1010.77 1010.40 1010.05 1009.70 1009.38 1009.07 1008.78 1008.50 1008.24 1008.01 1007.80 1007.64 1007.52 1007.46 1007.45 1007.47 1007.52 1007.57 1007.60 1007.58 1007.50
1011.89 1011.99 1012.09 1012.19 1012.28 1012.35 1012.38 1012.37 1012.32 1012.23 1012.13 1012.01 1011.90 1011.80 1011.71 1011.63 1011.54 1011.42 1011.28 1011.10 1010.87 1010.61 1010.31 1010.00 1009.66 1009.32 1008.98 1008.64 1008.30 1007.96 1007.64 1007.33 1007.07 1006.84 1006.68 1006.58 1006.55 1006.57 1006.64 1006.73 1006.83 1006.90 1006.92
1011.75 1011.81 1011.88 1011.95 1012.02 1012.07 1012.07 1012.04 1011.95 1011.82 1011.67 1011.50 1011.33 1011.17 1011.03 1010.91 1010.79 1010.68 1010.55 1010.40 1010.22 1010.01 1009.76 1009.49 1009.18 1008.86 1008.51 1008.16 1007.79 1007.42 1007.06 1006.71 1006.40 1006.13 1005.92 1005.77 1005.69 1005.68 1005.74 1005.84 1005.97 1006.11 1006.23
1011.60 1011.63 1011.67 1011.72 1011.76 1011.78 1011.76 1011.69 1011.56 1011.40 1011.19 1010.96 1010.74 1010.52 1010.33 1010.17 1010.02 1009.90 1009.78 1009.64 1009.49 1009.31 1009.10 1008.84 1008.57 1008.26 1007.93 1007.58 1007.22 1006.85 1006.49 1006.13 1005.80 1005.50 1005.25 1005.06 1004.92 1004.86 1004.87 1004.94 1005.07 1005.24 1005.43
1011.45 1011.46 1011.48 1011.50 1011.50 1011.49 1011.43 1011.32 1011.16 1010.94 1010.69 1010.42 1010.14 1009.87 1009.63 1009.42 1009.25 1009.10 1008.96 1008.82 1008.67 1008.50 1008.30 1008.06 1007.80 1007.50 1007.20 1006.88 1006.55 1006.22 1005.89 1005.56 1005.25 1004.95 1004.68 1004.44 1004.26 1004.13 1004.07 1004.08 1004.17 1004.33 1004.56
1011.33 1011.31 1011.30 1011.28 1011.24 1011.18 1011.08 1010.92 1010.71 1010.46 1010.16 1009.84 1009.51 1009.20 1008.92 1008.68 1008.46 1008.28 1008.12 1007.96 1007.78 1007.60 1007.38 1007.14 1006.87 1006.60 1006.31 1006.03 1005.76 1005.49 1005.22 1004.96 1004.70 1004.44 1004.18 1003.92 1003.69 1003.49 1003.35 1003.28 1003.31 1003.43 1003.64
1011.21 1011.17 1011.11 1011.04 1010.95 1010.83 1010.67 1010.46 1010.21 1009.90 1009.57 1009.21 1008.86 1008.52 1008.20 1007.93 1007.68 1007.47 1007.27 1007.07 1006.86 1006.63 1006.38 1006.12 1005.84 1005.56 1005.30 1005.06 1004.84 1004.65 1004.48 1004.30 1004.12 1003.92 1003.68 1003.44 1003.18 1002.92 1002.71 1002.56 1002.51 1002.56 1002.74
1011.08 1010.99 1010.88 1010.74 1010.58 1010.40 1010.17 1009.91 1009.61 1009.27 1008.91 1008.54 1008.17 1007.81 1007.49 1007.19 1006.92 1006.68 1006.44 1006.20 1005.95 1005.67 1005.38 1005.07 1004.77 1004.48 1004.22 1004.02 1003.85 1003.73 1003.64 1003.56 1003.46 1003.34 1003.16 1002.94 1002.67 1002.40 1002.13 1001.91 1001.78 1001.78 1001.90
1010.88 1010.73 1010.55 1010.34 1010.10 1009.84 1009.56 1009.25 1008.92 1008.57 1008.20 1007.82 1007.46 1007.11 1006.78 1006.48 1006.20 1005.94 1005.67 1005.39 1005.08 1004.76 1004.42 1004.06 1003.72 1003.41 1003.14 1002.95 1002.82 1002.74 1002.72 1002.72 1002.70 1002.65 1002.54 1002.37 1002.13 1001.86 1001.57 1001.31 1001.14 1001.07 1001.16
1010.58 1010.35 1010.08 1009.80 1009.49 1009.17 1008.84 1008.51 1008.16 1007.80 1007.44 1007.09 1006.74 1006.42 1006.11 1005.82 1005.54 1005.26 1004.97 1004.66 1004.32 1003.94 1003.55 1003.15 1002.77 1002.42 1002.13 1001.92 1001.80 1001.75 1001.76 1001.80 1001.85 1001.86 1001.82 1001.70 1001.51 1001.26 1000.99 1000.73 1000.54 1000.46 1000.51
1010.13 1009.83 1009.48 1009.13 1008.77 1008.41 1008.06 1007.71 1007.37 1007.04 1006.71 1006.38 1006.07 1005.78 1005.49 1005.21 1004.93 1004.65 1004.34 1004.01 1003.64 1003.24 1002.81 1002.37 1001.94 1001.55 1001.23 1000.98 1000.84 1000.77 1000.78 1000.84 1000.92 1000.98 1000.98 1000.92 1000.78 1000.59 1000.36 1000.14 999.98 999.90 999.94
Thickness
5728 5725 5723 5720 5719 5717 5714 5712 5711 5710 5709 5708 5708 5709 5708 5707 5705 5704 5702 5701 5701 5700 5699 5698 5698 5698 5698 5698 5698 5699 5699 5698 5698 5698 5697 5697 5696 5695 5695 5695 5694 5694 5693
5725 5721 5719 5716 5714 5712 5709 5708 5706 5705 5704 5703 5703 5703 5703 5702 5700 5699 5697 5696 5695 5694 5694 5694 5693 5693 5693 5693 5694 5694 5695 5695 5695 5694 5694 5694 5694 5693 5692 5693 5692 5691 5691
5721 5717 5715 5712 5709 5707 5705 5703 5702 5701 5700 5699 5698 5698 5698 5697 5695 5694 5692 5691 5690 5689 5689 5688 5688 5687 5687 5688 5689 5689 5690 5691 5691 5691 5691 5692 5692 5691 5690 5690 5689 5688 5688
5717 5713 5710 5707 5704 5703 5701 5698 5697 5694 5693 5692 5691 5692 5692 5691 5690 5689 5688 5687 5686 5685 5684 5683 5683 5682 5682 5682 5683 5684 5686 5687 5687 5688 5688 5688 5688 5688 5687 5686 5686 5685 5685
5712 5709 5705 5701 5699 5698 5695 5692 5690 5688 5686 5685 5685 5686 5686 5686 5685 5685 5684 5682 5681 5680 5678 5678 5677 5677 5677 5677 5678 5679 5680 5682 5682 5684 5684 5685 5685 5684 5684 5683 5682 5682 5681
5707 5704 5700 5697 5695 5692 5688 5686 5683 5682 5681 5679 5679 5680 5680 5680 5680 5679 5678 5677 5675 5674 5673 5672 5671 5671 5671 5671 5672 5673 5675 5676 5677 5678 5680 5680 5680 5680 5680 5679 5679 5678 5678
5703 5699 5696 5692 5690 5687 5683 5681 5678 5676 5675 5674 5670 5669 5673 5675 5674 5673 5671 5670 5669 5668 5667 5666 5665 5664 5665 5665 5666 5667 5669 5670 5672 5673 5674 5675 5676 5676 5676 5675 5675 5675 5675
5698 5695 5690 5687 5685 5682 5679 5676 5673 5670 5669 5668 5663 5659 5658 5662 5664 5667 5665 5664 5663 5663 5661 5660 5659 5658 5658 5658 5660 5661 5662 5664 5665 5667 5668 5669 5670 5670 5671 5671 5671 5672 5672
5692 5689 5686 5683 5680 5678 5674 5671 5667 5663 5660 5660 5659 5653 5647 5647 5649 5655 5657 5657 5657 5655 5654 5654 5653 5653 5653 5653 5653 5655 5656 5657 5659 5660 5662 5663 5665 5665 5666 5666 5667 5668 5669
5688 5685 5682 5679 5676 5673 5669 5666 5663 5659 5655 5653 5653 5652 5648 5645 5640 5641 5646 5649 5649 5648 5648 5648 5647 5647 5646 5647 5647 5648 5649 5650 5652 5654 5656 5657 5658 5659 5660 5662 5663 5665 5665
5683 5681 5678 5675 5671 5667 5665 5662 5658 5654 5651 5648 5646 5645 5643 5642 5639 5633 5634 5638 5640 5641 5642 5641 5640 5641 5640 5640 5641 5642 5643 5644 5645 5647 5649 5651 5652 5654 5655 5657 5659 5660 5661
5678 5676 5673 5670 5666 5663 5661 5657 5654 5651 5648 5645 5643 5640 5637 5635 5633 5631 5629 5630 5630 5633 5635 5635 5635 5634 5634 5635 5635 5636 5636 5637 5639 5640 5642 5644 5646 5647 5649 5651 5653 5654 5656
5672 5670 5669 5665 5662 5659 5656 5653 5650 5647 5645 5641 5639 5637 5634 5632 5631 5628 5625 5623 5623 5626 5627 5628 5629 5628 5628 5628 5629 5629 5630 5631 5632 5634 5636 5638 5640 5641 5642 5644 5646 5648 5650
5666 5665 5662 5660 5657 5655 5653 5649 5646 5643 5641 5638 5636 5633 5630 5629 5627 5624 5621 5618 5616 5617 5618 5620 5623 5623 5623 5622 5622 5623 5624 5625 5627 5628 5630 5631 5633 5634 5636 5637 5639 5641 5644
5661 5660 5657 5655 5653 5651 5648 5645 5641 5639 5636 5634 5632 5629 5627 5625 5623 5621 5619 5615 5610 5608 5610 5613 5615 5617 5617 5616 5616 5617 5618 5619 5621 5622 5624 5625 5627 5628 5630 5631 5632 5635 5637
5656 5654 5652 5650 5648 5646 5644 5640 5637 5635 5632 5630 5627 5625 5623 5622 5620 5617 5615 5612 5609 5605 5605 5608 5609 5610 5610 5610 5610 5611 5612 5613 5615 5616 5618 5620 5621 5622 5624 5625 5626 5628 5630
5652 5650 5648 5646 5643 5641 5639 5636 5633 5631 5628 5625 5623 5621 5619 5618 5615 5613 5611 5608 5606 5603 5600 5603 5604 5604 5604 5603 5604 5605 5607 5609 5610 5611 5613 5614 5616 5617 5618 5620 5621 5622 5624
5647 5645 5644 5641 5639 5637 5634 5632 5629 5626 5623 5620 5618 5617 5615 5614 5611 5608 5606 5604 5602 5601 5598 5597 5598 5598 5598 5599 5600 5600 5602 5605 5607 5608 5609 5610 5611 5612 5613 5614 5616 5617 5619
5643 5641 5639 5636 5634 5632 5630 5628 5626 5623 5619 5616 5614 5612 5610 5609 5606 5604 5602 5599 5598 5598 5595 5593 5593 5593 5593 5595 5595 5596 5598 5600 5602 5604 5604 5605 5606 5607 5608 5609 5611 5613 5614
5638 5636 5634 5632 5630 5629 5626 5624 5621 5618 5615 5612 5610 5608 5607 5605 5602 5600 5598 5596 5594 5592 5591 5589 5588 5589 5589 5591 5590 5590 5592 5595 5597 5599 5600 5600 5601 5602 5603 5605 5607 5608 5609
5635 5633 5631 5629 5627 5625 5622 5618 5615 5613 5610 5608 5606 5605 5603 5602 5599 5596 5594 5591 5589 5587 5585 5584 5583 5583 5584 5584 5585 5587 5587 5589 5592 5594 5594 5595 5596 5596 5598 5599 5601 5603 5604
5631 5628 5626 5625 5623 5621 5616 5612 5609 5607 5605 5603 5602 5601 5600 5598 5596 5593 5590 5588 5585 5583 5581 5579 5579 5578 5579 5580 5582 5583 5583 5583 5585 5589 5589 5590 5592 5592 5594 5596 5598 5599 5600
5627 5624 5623 5621 5619 5615 5611 5608 5605 5602 5601 5600 5599 5597 5596 5595 5592 5589 5587 5585 5583 5581 5578 5576 5575 5575 5575 5576 5576 5577 5578 5578 5579 5584 5583 5585 5588 5589 5591 5595 5596 5596 5597
5624 5621 5620 5619 5616 5612 5608 5605 5602 5600 5599 5598 5597 5595 5592 5590 5587 5584 5584 5582 5581 5579 5577 5574 5573 5573 5574 5573 5572 5572 5573 5575 5578 5580 5581 5580 5584 5586 5589 5591 5593 5593 5593
5622 5620 5619 5617 5613 5610 5606 5602 5599 5598 5597 5596 5595 5593 5590 5586 5582 5580 5578 5577 5576 5575 5574 5572 5570 5570 5570 5569 5568 5567 5568 5570 5572 5575 5578 5577 5580 5582 5584 5586 5588 5589 5590
5621 5619 5617 5615 5613 5609 5605 5601 5596 5595 5594 5593 5591 5589 5586 5582 5578 5574 5571 5569 5568 5568 5567 5566 5565 5565 5565 5565 5565 5563 5565 5565 5568 5570 5574 5574 5575 5577 5578 5582 5584 5584 5584